Paris / Charles De Gaulle, France

10:36 AM CEST on September 26, 2017 (GMT +0200)
Charles de Gaulle

Weather History for LFPG - June, 2012

Change the Weather History Date:

Saturday, June 30, 2012

  Actual Average Record
Temperature  
Mean Temperature 66 °F -  
Max Temperature 73 °F 74 °F 91 °F (2015)
Min Temperature 59 °F 56 °F 50 °F (2011)
Cooling Degree Days 1    
Growing Degree Days 16 (Base 50)    
Moisture  
Dew Point 52 °F    
Average Humidity 61    
Maximum Humidity 77    
Minimum Humidity 44    
Precipitation  
Precipitation 0.00 in - - ()
Sea Level Pressure  
Sea Level Pressure 29.90 in    
Wind  
Wind Speed 9 mph ()    
Max Wind Speed 20 mph    
Max Gust Speed 33 mph    
Visibility 6.2 miles    
Events      
Averages and records for this station are not official NWS values.
T = Trace of Precipitation, MM = Missing Value Source: Averaged Metar Reports

Daily Weather History Graph

Daily Weather History Graph

Search for Another Location

Airport or City:

Trip Planner

Search our weather history database for the weather conditions in past years. The results will help you decide how hot, cold, wet, or windy it might be!

Date:

Astronomy

Jun. 30, 2012 Rise Set
Actual Time 5:49 AM CEST 9:57 PM CEST
Civil Twilight 5:06 AM CEST 10:40 PM CEST
Nautical Twilight 4:06 AM CEST 11:40 PM CEST
Astronomical Twilight 2:25 AM CEST 1:21 AM CEST
Moon 6:30 PM CEST (6/30) 2:41 AM CEST (6/30)
Length of Visible Light 17h 33m
Length of Day
16h 08m
Waxing Gibbous, 84% of the Moon is Illuminated
Jun 30
Waxing Gibbous
Jul 3
Full
Jul 11
Last Quarter
Jul 19
New
Jul 26
First Quarter

Hourly Weather History & Observations

Time (CEST) Temp. Dew Point Humidity Pressure Visibility Wind Dir Wind Speed Gust Speed Precip Events Conditions
12:00 AM 66.2 °F 53.6 °F 64% 29.89 in - SSW 9.2 mph - N/A   Clear
12:30 AM 66.2 °F 53.6 °F 64% 29.89 in - SSW 10.4 mph - N/A   Clear
1:00 AM 66.2 °F 51.8 °F 60% 29.89 in - SSW 10.4 mph - N/A   Clear
1:30 AM 66.2 °F 51.8 °F 60% 29.89 in - SSW 10.4 mph - N/A   Clear
2:00 AM 64.4 °F 51.8 °F 64% 29.89 in 6.2 mi SW 11.5 mph - N/A   Scattered Clouds
2:30 AM 64.4 °F 53.6 °F 68% 29.89 in - SSW 8.1 mph - N/A   Clear
3:00 AM 62.6 °F 51.8 °F 68% 29.89 in - SSW 5.8 mph - N/A   Clear
3:30 AM 62.6 °F 51.8 °F 68% 29.89 in - SW 3.5 mph - N/A   Clear
4:00 AM 60.8 °F 51.8 °F 72% 29.89 in - SW 5.8 mph - N/A   Clear
4:30 AM 60.8 °F 51.8 °F 72% 29.89 in - SSW 5.8 mph - N/A   Clear
5:00 AM 59.0 °F 51.8 °F 77% 29.89 in - SW 5.8 mph - N/A   Clear
5:30 AM 59.0 °F 51.8 °F 77% 29.89 in - SW 5.8 mph - N/A   Clear
6:00 AM 59.0 °F 51.8 °F 77% 29.89 in - SSW 5.8 mph - N/A   Clear
6:30 AM 59.0 °F 51.8 °F 77% 29.89 in - South 5.8 mph - N/A   Clear
7:00 AM 59.0 °F 51.8 °F 77% 29.89 in - SSE 6.9 mph - N/A   Clear
7:30 AM 59.0 °F 51.8 °F 77% 29.89 in - South 5.8 mph - N/A   Clear
8:00 AM 60.8 °F 51.8 °F 72% 29.92 in - South 9.2 mph - N/A   Clear
8:30 AM 60.8 °F 50.0 °F 68% 29.92 in - South 11.5 mph - N/A   Clear
9:00 AM 60.8 °F 51.8 °F 72% 29.92 in - South 11.5 mph - N/A   Clear
9:30 AM 62.6 °F 51.8 °F 68% 29.92 in - South 10.4 mph - N/A   Clear
10:00 AM 64.4 °F 51.8 °F 64% 29.92 in 6.2 mi SSW 10.4 mph - N/A   Partly Cloudy
10:30 AM 66.2 °F 51.8 °F 60% 29.92 in 6.2 mi SW 10.4 mph - N/A   Partly Cloudy
11:00 AM 66.2 °F 51.8 °F 60% 29.92 in 6.2 mi WSW 6.9 mph - N/A   Scattered Clouds
11:30 AM 68.0 °F 51.8 °F 56% 29.92 in 6.2 mi SW 8.1 mph - N/A   Scattered Clouds
12:00 PM 69.8 °F 50.0 °F 49% 29.92 in 6.2 mi SW 11.5 mph - N/A   Partly Cloudy
12:30 PM 69.8 °F 51.8 °F 53% 29.92 in 6.2 mi SW 11.5 mph 24.2 mph N/A   Scattered Clouds
1:30 PM 71.6 °F 51.8 °F 50% 29.92 in 6.2 mi SW 11.5 mph - N/A   Scattered Clouds
2:00 PM 73.4 °F 50.0 °F 44% 29.89 in 6.2 mi SW 12.7 mph - N/A   Scattered Clouds
2:30 PM 73.4 °F 50.0 °F 44% 29.89 in 6.2 mi SSW 13.8 mph - N/A   Mostly Cloudy
3:00 PM 73.4 °F 51.8 °F 47% 29.89 in 6.2 mi Variable 10.4 mph 25.3 mph N/A   Mostly Cloudy
3:30 PM 73.4 °F 50.0 °F 44% 29.89 in - SSW 13.8 mph - N/A   Clear
4:00 PM 73.4 °F 50.0 °F 44% 29.89 in - SSW 13.8 mph - N/A   Clear
4:30 PM 73.4 °F 50.0 °F 44% 29.89 in - SSW 16.1 mph - N/A   Clear
5:00 PM 71.6 °F 53.6 °F 53% 29.89 in 6.2 mi West 19.6 mph 33.4 mph N/A   Scattered Clouds
5:30 PM 73.4 °F 53.6 °F 50% 29.92 in 6.2 mi WSW 17.3 mph - N/A   Scattered Clouds
6:00 PM 73.4 °F 53.6 °F 50% 29.89 in 6.2 mi West 15.0 mph - N/A   Scattered Clouds
6:30 PM 73.4 °F 53.6 °F 50% 29.89 in 6.2 mi West 13.8 mph - N/A   Scattered Clouds
7:00 PM 73.4 °F 53.6 °F 50% 29.89 in 6.2 mi West 16.1 mph - N/A   Partly Cloudy
7:30 PM 71.6 °F 53.6 °F 53% 29.89 in 6.2 mi West 13.8 mph - N/A   Partly Cloudy
8:00 PM 71.6 °F 53.6 °F 53% 29.89 in 6.2 mi West 12.7 mph - N/A   Partly Cloudy
8:30 PM 71.6 °F 53.6 °F 53% 29.92 in 6.2 mi West 12.7 mph - N/A   Partly Cloudy
9:00 PM 69.8 °F 51.8 °F 53% 29.92 in 6.2 mi West 9.2 mph - N/A   Partly Cloudy
9:30 PM 68.0 °F 53.6 °F 60% 29.92 in 6.2 mi West 5.8 mph - N/A   Partly Cloudy
10:00 PM 66.2 °F 53.6 °F 64% 29.92 in 6.2 mi NW 4.6 mph - N/A   Partly Cloudy
10:30 PM 64.4 °F 53.6 °F 68% 29.95 in 6.2 mi NW 5.8 mph - N/A   Partly Cloudy
11:00 PM 62.6 °F 53.6 °F 72% 29.95 in 6.2 mi NW 6.9 mph - N/A   Mostly Cloudy
11:30 PM 62.6 °F 53.6 °F 72% 29.95 in 6.2 mi WNW 3.5 mph - N/A   Scattered Clouds